Home   Weather   Guangzhou   Past weeks
Flag for China

Past Weather in Guangzhou, Guangdong, China — Yesterday and Last 2 Weeks

Now
59 °F

Partly sunny.


Feels Like: 57 °F
Forecast: 65 / 50 °F
Wind: 10 mph from North

Location: Canton Airport

Current Time: Jan 21, 2019 at 12:21:14 pm

Latest Report: Jan 21, 2019 at 11:30 am


Visibility: N/A

Pressure: 30.27 "Hg

Humidity: 51%

Dew Point: 41 °F

Location of GuangzhouLocation

Past Weather in Guangzhou — Graph

°F

Guangzhou Temperature Yesterday

Maximum temperature yesterday: 75 °F (at 12:00 pm)
Minimum temperature yesterday: 57 °F (at 10:00 pm)
Average temperature yesterday: 64 °F

High & Low Weather Summary for the Past Weeks

 TemperatureHumidityPressure
High75 °F (Jan 19, 3:30 pm)94% (Jan 7, 12:00 am)30.30 "Hg (Jan 7, 12:00 am)
Low48 °F (Jan 18, 4:00 am)43% (Jan 17, 1:00 pm)30.01 "Hg (Jan 11, 2:30 pm)
Average61 °F69%30.15 "Hg
* Reported Jan 6 11:00 am — Jan 21 11:00 am, Guangzhou. Weather by CustomWeather, © 2019

Note: Actual official high and low records may vary slightly from our data, if they occured in-between our weather recording intervals... More about our weather records

Advertising

Guangzhou Weather History for the Previous 24 Hours

Scroll right to see more
 ConditionsComfort  
Time TempWeatherWind HumidityBarometerVisibility
11:00 am
Mon, Jan 21
59 °FPartly sunny.13 mph51%30.30 "HgN/A
10:30 am57 °FPartly sunny.10 mph48%30.30 "HgN/A
10:00 am57 °FPartly sunny.13 mph48%30.30 "HgN/A
9:30 am55 °FScattered clouds.15 mph51%30.30 "HgN/A
9:00 am55 °FScattered clouds.15 mph51%30.27 "HgN/A
8:30 am55 °FPartly sunny.10 mph51%30.27 "HgN/A
8:00 am54 °FScattered clouds.13 mph51%30.27 "HgN/A
7:30 am54 °FPassing clouds.10 mph54%30.24 "HgN/A
7:00 am54 °FPassing clouds.15 mph54%30.24 "HgN/A
6:30 am55 °FPassing clouds.10 mph51%30.24 "HgN/A
6:00 am55 °FPassing clouds.10 mph55%30.21 "HgN/A
5:30 am54 °FPassing clouds.13 mph58%30.21 "HgN/A
5:00 am55 °FPassing clouds.17 mph55%30.21 "HgN/A
4:30 am55 °FPassing clouds.15 mph59%30.21 "HgN/A
4:00 am55 °FPassing clouds.13 mph59%30.21 "HgN/A
3:30 am55 °FPassing clouds.13 mph59%30.21 "HgN/A
3:00 am55 °FPassing clouds.17 mph59%30.21 "HgN/A
2:30 am55 °FPassing clouds.13 mph63%30.21 "HgN/A
2:00 am57 °FPassing clouds.15 mph59%30.21 "HgN/A
1:30 am57 °FPassing clouds.13 mph63%30.21 "HgN/A
1:00 am57 °FPassing clouds.10 mph63%30.21 "HgN/A
12:30 am57 °FPassing clouds.10 mph67%30.21 "HgN/A
12:00 am57 °FPassing clouds.8 mph67%30.21 "HgN/A
11:30 pm
Sun, Jan 20
57 °FPassing clouds.8 mph67%30.21 "HgN/A
11:00 pm57 °FPassing clouds.10 mph67%30.21 "HgN/A
10:30 pm57 °FPassing clouds.13 mph67%30.18 "HgN/A
10:00 pm57 °FOvercast.13 mph67%30.18 "HgN/A
9:30 pm59 °FLight rain. Overcast.10 mph68%30.18 "HgN/A
9:00 pm59 °FPassing clouds.10 mph68%30.18 "HgN/A
8:30 pm61 °FPassing clouds.10 mph63%30.15 "HgN/A
8:00 pm61 °FPassing clouds.10 mph63%30.15 "HgN/A
7:30 pm59 °FPassing clouds.13 mph68%30.15 "HgN/A
7:00 pm61 °FPassing clouds.13 mph68%30.12 "HgN/A
6:30 pm61 °FClear.10 mph68%30.12 "Hg10 mi
6:00 pm63 °FSunny.13 mph64%30.09 "Hg10 mi
5:30 pm63 °FPassing clouds.15 mph64%30.09 "Hg5 mi
5:00 pm64 °FScattered clouds.15 mph60%30.09 "Hg5 mi
4:30 pm66 °FPartly sunny.13 mph60%30.09 "Hg5 mi
4:00 pm66 °FPartly sunny.17 mph60%30.09 "Hg5 mi
3:30 pm66 °FPartly sunny.15 mph60%30.09 "Hg4 mi
2:30 pm68 °FPartly sunny.17 mph60%30.07 "Hg4 mi
2:00 pm70 °FScattered clouds.22 mph57%30.09 "Hg4 mi
1:30 pm72 °FClear.17 mph53%30.09 "Hg4 mi
1:00 pm73 °FClear.15 mph53%30.09 "Hg4 mi
12:30 pm75 °FPassing clouds.13 mph47%30.12 "Hg4 mi
12:00 pm75 °FScattered clouds.10 mph54%30.12 "Hg4 mi
Weather by CustomWeather, © 2019

See weather overview

LIVE TOTAL LUNAR ECLIPSE – Watch the eclipse as it happens